Regional Weather Roundup
Issued by NWS

Home | Current Version | Previous Version | Graphics & Text | Print | Product List | Glossary On
Versions: 1 2 3 4 5 6 7 8 9 10 11 12 13 14 15 16 17 18 19 20 21 22 23 24 25 26 27 28 29 30 31 32 33 34 35 36 37 38 39 40 41 42 43 44 45 46 47 48 49 50
000
ASUS43 KMPX 041401
RWRMN
WEATHER ROUNDUP FOR MINNESOTA
NATIONAL WEATHER SERVICE TWIN CITIES/CHANHASSEN MN
900 AM CDT SAT JUL 04 2015


NOTE: "FAIR" INDICATES FEW OR NO CLOUDS BELOW 12,000 FEET WITH NO
SIGNIFICANT WEATHER AND/OR OBSTRUCTIONS TO VISIBILITY. N/A MEANS
CURRENT SKY AND/OR WEATHER CONDITIONS ARE NOT AVAILABLE.

MNZ060>063-068>070-041500-
   Twin Cities Metro

CITY           SKY/WX    TMP DP  RH WIND       PRES   REMARKS
TWIN CITIES    PTSUNNY   70  62  76 CALM      29.95S HAZE
ST PAUL        SUNNY     70  63  78 CALM      29.95S
CRYSTAL        SUNNY     74  63  68 CALM      29.93S HAZE
BLAINE         SUNNY     72  66  83 CALM      29.95S
LAKEVILLE      SUNNY     68  63  83 CALM      29.95S
EDEN PRAIRIE   MOSUNNY   68  62  81 SW3       29.94S HAZE
SOUTH ST PAUL  SUNNY     70  62  76 CALM      29.95S
LAKE ELMO      FAIR      70  63  78 CALM      29.96S
$$
MNZ001>005-007-008-013>017-022>024-027-028-041500-
   Northwest Minnesota

CITY           SKY/WX    TMP DP  RH WIND       PRES   REMARKS
BEMIDJI        SUNNY     67  59  75 S5        29.94F
HALLOCK        SUNNY     68  63  83 S9        29.85F HAZE
ROSEAU         MOSUNNY   66  59  77 S6        29.90F
WARROAD        SUNNY     68  63  83 S5        29.91S
THIEF RVR FALL SUNNY     68  63  83 S8        29.90F
CROOKSTON      SUNNY     70  63  78 S8        29.89F HAZE
FOSSTON        SUNNY     66  61  82 S3        29.93S HAZE
DETROIT LAKES  SUNNY     70  63  78 S6        29.94S HAZE
MOORHEAD         N/A     70  64  83 SE6       29.90S HAZE
PARK RAPIDS    PTSUNNY   68  59  73 SE7       29.95S HAZE
MAHNOMEN       FAIR      69  63  81 S5        29.92S
$$
MNZ006-009>011-018-025>026-041500-
   North Central Minnesota

CITY           SKY/WX    TMP DP  RH WIND       PRES   REMARKS
BAUDETTE       SUNNY     64  57  78 S7        29.92S
FLAG ISLAND    MOSUNNY   70  61  73 S8        29.90S
INTL FALLS     MOSUNNY   66  58  75 VRB3      29.95S
WASKISH        SUNNY     68  61  77 SE3       29.94S HAZE
BIG FORK       SUNNY     68  59  73 S5        29.97S
LONGVILLE      SUNNY     64  61  88 CALM      29.96S FOG
GRAND RAPIDS   SUNNY     66  57  72 SE5       29.97F
CRANE LAKE     SUNNY     63  57  82 S2        29.99S
ORR            SUNNY     64  55  72 SE5       29.95S
COOK           SUNNY     64  57  77 CALM      29.98S
WALKER         FAIR      65  61  84 CALM      29.95S
$$
MNZ012-019>021-037-041500-
   Northeast Minnesota

CITY           SKY/WX    TMP DP  RH WIND       PRES   REMARKS
DULUTH         SUNNY     67  58  72 E7        29.98S
ELY            SUNNY     63  55  77 SE5       29.99S
HIBBING        SUNNY     65  58  78 SE3       29.98S
DULUTH HARBOR  SUNNY     63  59  88 E9        29.98S
SILVER BAY     SUNNY     70  55  60 CALM      29.97S
GRAND MARAIS     N/A     55  50  83 CALM      29.99S
G MARAIS ARPRT SUNNY     64  54  68 CALM      30.03R
$$
MNZ029>031-032-039>041-046>048-054>057-064-041500-
   West Central Minnesota

CITY           SKY/WX    TMP DP  RH WIND       PRES   REMARKS
FERGUS FALLS   SUNNY     70  63  78 SE6       29.92S HAZE
WHEATON        SUNNY     68  64  88 S5        29.93S FOG
MORRIS         SUNNY     72  66  83 SE3       29.92S FOG
ALEXANDRIA     MOSUNNY   70  64  81 CALM      29.95F HAZE
ELBOW LAKE     FAIR      69  65  88 SE6       29.92F FOG
WADENA         SUNNY     64  63  94 CALM      29.94S FOG
GLENWOOD       SUNNY     70  66  88 CALM      29.95S FOG
APPLETON       SUNNY     72  66  83 CALM      29.92S FOG
BENSON         SUNNY     70  66  88 CALM      29.93S FOG
ORTONVILLE     SUNNY     70  64  83 CALM      29.93R HAZE
MADISON        MOSUNNY   70  64  83 CALM      29.93S
WILLMAR        FAIR      70  66  88 CALM      29.95S FOG
$$
MNZ033>034-036-042>043-049>051-058-059-041500-
   Central Minnesota

CITY           SKY/WX    TMP DP  RH WIND       PRES   REMARKS
ST CLOUD       PTSUNNY   69  62  78 E5        29.94F HAZE
SAUK CENTRE    FAIR      67  64  93 CALM      29.95S FOG
PAYNESVILLE    SUNNY     65  65 100 CALM      29.95S FOG
AITKIN         SUNNY     66  61  82 SE3       29.95S
PINE RIVER     SUNNY     66  61  82 CALM      29.99S
BRAINERD       SUNNY     68  61  78 SE5       29.96S HAZE
STAPLES        SUNNY     66  61  82 CALM      29.95S HAZE
LONG PRAIRIE   CLOUDY    68  61  77 E3        29.95S HAZE
LITTLE FALLS   SUNNY     66  61  82 CALM      29.95S HAZE
LITCHFIELD     SUNNY     72  66  83 CALM      29.95S
BUFFALO        SUNNY     69  64  84 CALM      29.96S HAZE
MAPLE LAKE     SUNNY     69  69  98 CALM      29.95S FOG
$$
MNZ037-044-045-052-053-041500-
   East Central Minnesota

CITY           SKY/WX    TMP DP  RH WIND       PRES   REMARKS
PRINCETON      SUNNY     70  63  78 CALM      29.95S HAZE
MORA           SUNNY     64  59  82 CALM      29.98R
CAMBRIDGE      SUNNY     72  61  68 CALM      29.93S HAZE
RUSH CITY      SUNNY     66  63  89 CALM      29.96S
MOOSE LAKE     SUNNY     64  57  77 NE3       29.96S
HINCKLEY       FAIR      66  61  82 CALM      29.96S
CLOQUET        SUNNY     66  57  72 E3        29.98R
MCGREGOR       SUNNY     66  59  77 SE3       29.97S
$$
MNZ071>073-080-081-089-090-097-098-041500-
   Southwest Minnesota

CITY           SKY/WX    TMP DP  RH WIND       PRES   REMARKS
MONTEVIDEO     SUNNY     75  70  83 NW3       29.94S HAZE
GRANITE FALLS  SUNNY     70  65  85 CALM      29.95S HAZE
CANBY          SUNNY     73  65  78 SW6       29.95S
MARSHALL       SUNNY     73  63  68 SW5         N/A
REDWOOD FALLS  SUNNY     72  64  76 SW6       29.94S
OLIVIA         SUNNY     68  63  83 SW3       29.94R HAZE
PIPESTONE      SUNNY     70  64  83 SW5       29.98R
WINDOM         SUNNY     70  61  73 CALM      29.98R
WORTHINGTON    SUNNY     68  61  77 W7        29.99S
JACKSON        SUNNY     70  61  73 SW7       29.99R
TRACY          MOSUNNY   73  65  78 SW7       29.96S
SLAYTON        SUNNY     70  64  79 CALM      29.99S
$$
MNZ065>067-074>077-082>085-091>093-041500-
   South Central Minnesota

CITY           SKY/WX    TMP DP  RH WIND       PRES   REMARKS
MANKATO        SUNNY     68  61  77 SW3       29.97R
NEW ULM        SUNNY     70  64  83 W3        29.95S
ST JAMES       SUNNY     72  64  78 SW3       29.98R HAZE
FAIRMONT       MOSUNNY   68  55  64 SW6       29.98R
GLENCOE        SUNNY     69  66  88 CALM      29.95S
FARIBAULT      SUNNY     68  63  83 CALM      29.97S HAZE
OWATONNA       SUNNY     68  61  77 SW3       29.98R HAZE
WASECA         SUNNY     64  61  88 SW5       29.99R HAZE
ALBERT LEA     SUNNY     70  61  73 W6        29.99R
$$
MNZ078>079-086>088-094>096-041500-
   Southeast Minnesota

CITY           SKY/WX    TMP DP  RH WIND       PRES   REMARKS
ROCHESTER      SUNNY     68  61  78 SW5       30.00R
RED WING       SUNNY     70  61  73 CALM      29.95S
STANTON        SUNNY     68  61  77 SW3       29.95S
DODGE CENTER   SUNNY     66  63  88 W6        29.98S HAZE
WINONA         SUNNY     70  59  68 CALM      29.97R
AUSTIN         SUNNY     68  61  77 CALM      29.99R
PRESTON        SUNNY     67  59  75 W3        29.99S
$$
ABBREVIATIONS USED IN REMARKS
   TC - TEMPERATURES IN CELSIUS
  WCI - WIND CHILL INDEX
   HX - HEAT INDEX
  VSB - VISIBILITY
$$



USA.gov is the U.S. government's official web portal to all federal, state and local government web resources and services.